TimeAKDT,TemperatureF,Dew PointF,Humidity,Sea Level PressureIn,VisibilityMPH,Wind Direction,Wind SpeedMPH,Gust SpeedMPH,PrecipitationIn,Events,Conditions,WindDirDegrees,DateUTC
12:53 AM,39.0,35.1,86,30.14,10.0,WSW,6.9,-,N/A,,Mostly Cloudy,240,2012-05-15 08:53:00
1:53 AM,37.9,35.1,89,30.16,10.0,Calm,Calm,-,N/A,,Mostly Cloudy,0,2012-05-15 09:53:00
2:53 AM,36.0,34.0,93,30.18,10.0,SSW,3.5,-,N/A,,Mostly Cloudy,200,2012-05-15 10:53:00
3:53 AM,35.1,33.1,92,30.19,10.0,SSE,4.6,-,N/A,,Mostly Cloudy,160,2012-05-15 11:53:00
4:53 AM,35.1,33.1,92,30.20,10.0,SSW,4.6,-,N/A,,Mostly Cloudy,200,2012-05-15 12:53:00
5:53 AM,34.0,33.1,96,30.22,10.0,Calm,Calm,-,N/A,,Mostly Cloudy,0,2012-05-15 13:53:00
6:53 AM,36.0,34.0,93,30.24,10.0,SSW,3.5,-,N/A,,Mostly Cloudy,200,2012-05-15 14:53:00
7:53 AM,37.9,35.1,89,30.25,10.0,SSE,3.5,-,N/A,,Mostly Cloudy,160,2012-05-15 15:53:00
8:53 AM,39.9,33.1,77,30.26,10.0,SSW,5.8,-,N/A,,Mostly Cloudy,200,2012-05-15 16:53:00
9:53 AM,42.1,33.1,70,30.26,10.0,Variable,5.8,-,N/A,,Mostly Cloudy,0,2012-05-15 17:53:00
10:53 AM,45.0,30.9,58,30.25,10.0,SSW,9.2,-,N/A,,Mostly Cloudy,200,2012-05-15 18:53:00
11:53 AM,45.0,32.0,60,30.26,10.0,SW,4.6,-,N/A,,Mostly Cloudy,220,2012-05-15 19:53:00
12:53 PM,46.0,30.0,54,30.25,10.0,South,4.6,-,N/A,,Mostly Cloudy,170,2012-05-15 20:53:00
1:53 PM,48.0,28.0,46,30.25,10.0,South,6.9,-,N/A,,Mostly Cloudy,190,2012-05-15 21:53:00
2:53 PM,48.0,32.0,54,30.27,10.0,South,11.5,-,N/A,,Mostly Cloudy,180,2012-05-15 22:53:00
3:53 PM,46.0,30.9,56,30.27,10.0,South,8.1,18.4,N/A,,Mostly Cloudy,190,2012-05-15 23:53:00
4:53 PM,48.9,27.0,43,30.26,10.0,SSW,5.8,-,N/A,,Mostly Cloudy,200,2012-05-16 00:53:00
5:53 PM,48.0,28.9,48,30.26,10.0,SSW,9.2,-,N/A,,Mostly Cloudy,200,2012-05-16 01:53:00
6:53 PM,48.0,28.9,48,30.27,10.0,SSW,6.9,-,N/A,,Mostly Cloudy,200,2012-05-16 02:53:00
7:53 PM,46.9,33.1,59,30.28,10.0,South,6.9,-,0.00,Rain,Light Rain,190,2012-05-16 03:53:00
8:53 PM,46.0,34.0,63,30.29,10.0,SSW,3.5,-,0.00,,Mostly Cloudy,200,2012-05-16 04:53:00
9:53 PM,46.9,33.1,59,30.30,10.0,Calm,Calm,-,N/A,,Mostly Cloudy,0,2012-05-16 05:53:00
10:53 PM,42.1,32.0,67,30.31,10.0,East,4.6,-,N/A,,Mostly Cloudy,100,2012-05-16 06:53:00
11:53 PM,37.9,33.1,83,30.32,10.0,Calm,Calm,-,N/A,,Mostly Cloudy,0,2012-05-16 07:53:00